Regional Weather Roundup
Issued by NWS

Home | Current Version | Previous Version | Graphics & Text | Print | Product List | Glossary On
Versions: 1 2 3 4 5 6 7 8 9 10 11 12 13 14 15 16 17 18 19 20 21 22 23 24 25 26 27 28 29 30 31 32 33 34 35 36 37 38 39 40 41 42 43 44 45 46 47 48 49 50
000
ASUS43 KMPX 290010
RWRMN
WEATHER ROUNDUP FOR MINNESOTA
NATIONAL WEATHER SERVICE TWIN CITIES/CHANHASSEN MN
700 PM CDT THU MAY 28 2015


NOTE: "FAIR" INDICATES FEW OR NO CLOUDS BELOW 12,000 FEET WITH NO
SIGNIFICANT WEATHER AND/OR OBSTRUCTIONS TO VISIBILITY. N/A MEANS
CURRENT SKY AND/OR WEATHER CONDITIONS ARE NOT AVAILABLE.

MNZ060>063-068>070-290100-
   Twin Cities Metro

CITY           SKY/WX    TMP DP  RH WIND       PRES   REMARKS
TWIN CITIES    PTSUNNY   81  50  33 S17G24    29.90F
6HR MIN TEMP:  81; 6HR MAX TEMP:  84;

ST PAUL        MOSUNNY   79  53  40 S13G23    29.90F
CRYSTAL        MOSUNNY   81  49  32 S13       29.88F
BLAINE         PTSUNNY   82  52  34 S18G28    29.90F
LAKEVILLE      PTSUNNY   79  52  38 S15       29.91F
EDEN PRAIRIE   MOSUNNY   80  53  39 S18       29.89F
6HR MIN TEMP:  79; 6HR MAX TEMP:  84;

SOUTH ST PAUL  MOSUNNY   81  49  33 S9G21     29.91F
LAKE ELMO      FAIR      79  54  41 S14G20    29.93F
$$
MNZ001>005-007-008-013>017-022>024-027-028-290100-
   Northwest Minnesota

CITY           SKY/WX    TMP DP  RH WIND       PRES   REMARKS
BEMIDJI        CLOUDY    75  52  44 S9        29.80F
HALLOCK        PTSUNNY   66  61  82 S7        29.78R
ROSEAU         CLOUDY    64  59  82 S9G21     29.82R
WARROAD        CLOUDY    63  59  88 S8        29.84R
THIEF RVR FALL CLOUDY    66  63  88 NW5       29.80F
CROOKSTON      CLOUDY    72  64  78 W9        29.79S
FOSSTON        CLOUDY    64  61  88 SW13      29.84R
DETROIT LAKES  CLOUDY    72  59  64 NW13G20   29.83R
MOORHEAD       CLOUDY    64  61  88 S8        29.80F
PARK RAPIDS    CLOUDY    78  50  37 S13       29.82F
MAHNOMEN       CLOUDY    63  58  84 CALM      29.83R
$$
MNZ006-009>011-018-025>026-290100-
   North Central Minnesota

CITY           SKY/WX    TMP DP  RH WIND       PRES   REMARKS
BAUDETTE       LGT RAIN  61  59  93 SE6       29.83R
FLAG ISLAND    LGT RAIN  57  55  94 CALM      29.81F
INTL FALLS     CLOUDY    62  56  80 E3        29.82F
6HR MIN TEMP:  57; 6HR MAX TEMP:  65; 6HR PCP: TRACE;

WASKISH        CLOUDY    64  61  88 NW5       29.81S
BIG FORK       CLOUDY   N/A N/A N/A S9G23     29.83S
LONGVILLE      PTSUNNY   77  50  38 S9        29.85S
GRAND RAPIDS   PTSUNNY   75  52  43 S16G22    29.87S
CRANE LAKE     PTSUNNY   75  52  43 S5        29.84S
ORR            PTSUNNY   75  50  41 S9G18     29.81F
COOK           MOSUNNY   75  52  43 S7G16     29.86S
WALKER         FAIR      76  51  42 S9        29.82F
$$
MNZ012-019>021-037-290100-
   Northeast Minnesota

CITY           SKY/WX    TMP DP  RH WIND       PRES   REMARKS
DULUTH         MOSUNNY   48  43  82 SE13      29.94F
6HR MIN TEMP:  48; 6HR MAX TEMP:  54;

HIBBING        MOSUNNY   73  51  46 S9        29.88F
EVELETH        MOSUNNY   72  52  49 S12       29.90F
DULUTH HARBOR  CLOUDY    43  41  93 E14       29.99F
TWO HARBORS    MOSUNNY   54  46  76 E6        29.94F
SILVER BAY     MOSUNNY   50  45  81 NE7       29.95F
GRAND MARAIS     N/A     44  40  85 NE5       29.96F
G MARAIS ARPRT MOSUNNY   57  46  67 E3        29.98F
$$
MNZ029>031-032-039>041-046>048-054>057-064-290100-
   West Central Minnesota

CITY           SKY/WX    TMP DP  RH WIND       PRES   REMARKS
FERGUS FALLS   PTSUNNY   81  55  41 SW21G26   29.78F
WHEATON        MOSUNNY   81  55  41 S14G24    29.79S
MORRIS         MOSUNNY   84  48  28 S22       29.78F
ALEXANDRIA     MOSUNNY   80  48  32 S16       29.84F
ELBOW LAKE     FAIR      80  52  37 S20G29    29.79F
WADENA         PTSUNNY   79  52  38 S15       29.82F
GLENWOOD       MOSUNNY   81  50  34 S21G26    29.84F
APPLETON       MOSUNNY   82  46  28 S12       29.79F
BENSON         MOSUNNY   81  45  28 S14       29.81S
ORTONVILLE     PTSUNNY   82  52  34 S14       29.78F
MADISON        PTSUNNY   82  50  32 S22G29    29.79F
WILLMAR          N/A     82  50  32 S13G22    29.85F
$$
MNZ033>034-036-042>043-049>051-058-059-290100-
   Central Minnesota

CITY           SKY/WX    TMP DP  RH WIND       PRES   REMARKS
ST CLOUD       MOSUNNY   80  51  36 S22G28    29.85F
6HR MIN TEMP:  79; 6HR MAX TEMP:  82;

SAUK CENTRE    FAIR      81  50  33 S16G26    29.84F
PAYNESVILLE    SUNNY     77  47  33 SE18G28   29.86F
AITKIN         PTSUNNY   81  54  39 S12G17    29.86S
PINE RIVER     MOSUNNY   79  54  41 S12G24    29.88S
BRAINERD       MOSUNNY   79  51  37 S15G23    29.86F
STAPLES        MOSUNNY   79  46  31 S13G25    29.84F
LONG PRAIRIE   FAIR      79  50  36 S18G26    29.85S
LITTLE FALLS   MOSUNNY   81  46  30 S14G20    29.86S
LITCHFIELD     MOSUNNY   81  48  32 S6        29.87F
BUFFALO        MOSUNNY   80  49  33 SE13G18   29.89F
MAPLE LAKE     MOSUNNY   81  53  37 S12G22    29.88F
$$
MNZ037-044-045-052-053-290100-
   East Central Minnesota

CITY           SKY/WX    TMP DP  RH WIND       PRES   REMARKS
PRINCETON      MOSUNNY   82  50  32 SE15G23   29.88F
MORA           MOSUNNY   77  50  38 S10G22    29.90F
CAMBRIDGE      SUNNY     82  57  42 S15G22    29.87F
RUSH CITY      SUNNY     80  49  34 S13G22    29.90F
MOOSE LAKE     MOSUNNY   64  48  55 NE8       29.89S
HINCKLEY       MOCLDY    79  55  44 S13G18    29.90S
CLOQUET        MOSUNNY   52  43  71 E9        29.94F
MCGREGOR       PTSUNNY   79  52  38 S14G23    29.88F
$$
MNZ071>073-080-081-089-090-097-098-290100-
   Southwest Minnesota

CITY           SKY/WX    TMP DP  RH WIND       PRES   REMARKS
MONTEVIDEO     MOSUNNY   82  52  34 SW18G25   29.81F
GRANITE FALLS  MOSUNNY   84  52  33 SE20G28   29.83F
CANBY          MOSUNNY   80  55  41 S18G25    29.82S
MARSHALL       MOSUNNY   81  55  41 S25G32    29.83F
REDWOOD FALLS  MOSUNNY   81  54  39 S25G31    29.84F
OLIVIA         MOSUNNY   77  46  33 S14G23    29.84F
PIPESTONE      PTSUNNY   77  54  44 S21       29.87F
WINDOM         MOSUNNY   75  55  50 S17G25    29.90F
WORTHINGTON    PTSUNNY   73  55  53 S23G29    29.89F
JACKSON        PTSUNNY   73  57  56 S20       29.93F
TRACY          MOSUNNY   78  57  48 S14G26    29.86F
SLAYTON        PTSUNNY   75  54  47 S20       29.88F
$$
MNZ065>067-074>077-082>085-091>093-290100-
   South Central Minnesota

CITY           SKY/WX    TMP DP  RH WIND       PRES   REMARKS
MANKATO        PTSUNNY   81  48  32 S14G23    29.91F
NEW ULM        PTSUNNY   79  54  41 S21G28    29.88F
ST JAMES       PTSUNNY   79  57  47 S23       29.91F
FAIRMONT       PTSUNNY   75  54  46 S23       29.92F
GLENCOE        PTSUNNY   83  52  34 S8G18     29.87F
FARIBAULT      PTSUNNY   79  50  36 S20       29.93F
OWATONNA       PTSUNNY   81  50  34 S21G26    29.94F
WASECA         PTSUNNY   79  50  36 S18G24    29.94F
ALBERT LEA     PTSUNNY   79  52  38 S10       29.96F
$$
MNZ078>079-086>088-094>096-290100-
   Southeast Minnesota

CITY           SKY/WX    TMP DP  RH WIND       PRES   REMARKS
ROCHESTER      MOSUNNY   76  53  44 S17       30.00F
6HR MIN TEMP:  76; 6HR MAX TEMP:  81;

RED WING       MOSUNNY   81  48  32 S12       29.93F
STANTON        MOSUNNY   79  50  36 S10G18    29.92F
DODGE CENTER   MOSUNNY   79  52  38 S18       29.98F
WINONA         MOSUNNY   79  54  41 CALM      30.00F
AUSTIN         MOSUNNY   75  52  43 S10G20    29.98F
PRESTON        MOSUNNY   75  51  42 S13       30.01F
$$
ABBREVIATIONS USED IN REMARKS
   TC - TEMPERATURES IN CELSIUS
  WCI - WIND CHILL INDEX
   HX - HEAT INDEX
  VSB - VISIBILITY
$$



USA.gov is the U.S. government's official web portal to all federal, state and local government web resources and services.